Southport, FL

9:25 AM CST on February 14, 2016 (GMT -0600)
Northwest Florida Beaches International

Weather History for KECP - May, 2013

Change the Weather History Date:

Sunday, May 26, 2013

  Actual Average Record
Temperature  
Mean Temperature 73 °F -  
Max Temperature 88 °F - 93 °F (2012)
Min Temperature 58 °F - 58 °F (2013)
Degree Days  
Heating Degree Days 0    
Cooling Degree Days 8    
Growing Degree Days 22 (Base 50)    
Moisture  
Dew Point 62 °F    
Average Humidity 71    
Maximum Humidity 97    
Minimum Humidity 45    
Precipitation  
Precipitation 0.00 in - 0.62 in (2015)
Month to date precipitation  
Year to date precipitation  
Sea Level Pressure  
Sea Level Pressure 30.21 in    
Wind  
Wind Speed 4 mph (SSE)    
Max Wind Speed 12 mph    
Max Gust Speed 16 mph    
Visibility 10 miles    
Events      
T = Trace of Precipitation, MM = Missing Value Source: NWS Daily Summary

Daily Weather History Graph

Daily Weather History Graph

Search for Another Location

Airport or City:

Trip Planner

Search our weather history database for the weather conditions in past years. The results will help you decide how hot, cold, wet, or windy it might be!

Date:

Astronomy

May. 26, 2013 Rise Set
Actual Time 6:43 AM EDT 8:37 PM EDT
Civil Twilight 6:16 AM EDT 9:04 PM EDT
Nautical Twilight 5:44 AM EDT 9:36 PM EDT
Astronomical Twilight 5:09 AM EDT 10:11 PM EDT
Moon 10:26 PM EDT (5/26) 8:10 AM EDT (5/26)
Length of Visible Light 14h 47m
Length of Day
13h 53m
Waning Gibbous, 97% of the Moon is Illuminated
May 26
Waning Gibbous
May 31
Last Quarter
Jun 8
New
Jun 16
First Quarter
Jun 23
Full

Hourly Weather History & Observations

Time (EDT) Temp. Heat Index Dew Point Humidity Pressure Visibility Wind Dir Wind Speed Gust Speed Precip Events Conditions
12:53 AM 63.0 °F - 57.9 °F 84% 30.20 in 10.0 mi Calm Calm - N/A   Clear
1:53 AM 60.1 °F - 55.9 °F 86% 30.19 in 10.0 mi Calm Calm - N/A   Clear
2:53 AM 60.1 °F - 55.9 °F 86% 30.18 in 10.0 mi Calm Calm - N/A   Clear
3:35 AM 59.0 °F - 55.4 °F 88% 30.14 in 10.0 mi Calm Calm - N/A   Partly Cloudy
3:53 AM 59.0 °F - 55.0 °F 87% 30.17 in - North - - N/A   Unknown
4:53 AM 59.0 °F - 55.9 °F 90% 30.17 in 10.0 mi North - - N/A   Clear
5:53 AM 60.1 °F - 57.0 °F 90% 30.20 in 8.0 mi North - - N/A   Clear
6:53 AM 61.0 °F - 59.0 °F 93% 30.21 in 7.0 mi NE 5.8 mph - N/A   Clear
7:53 AM 64.0 °F - 60.1 °F 87% 30.23 in 10.0 mi NNE 5.8 mph - N/A   Clear
8:53 AM 68.0 °F - 61.0 °F 78% 30.25 in 10.0 mi NNE 4.6 mph - N/A   Scattered Clouds
9:53 AM 73.9 °F - 64.0 °F 71% 30.26 in 10.0 mi East 4.6 mph - N/A   Clear
10:53 AM 81.0 °F 83.8 °F 68.0 °F 65% 30.27 in 10.0 mi South 9.2 mph - N/A   Partly Cloudy
11:53 AM 82.9 °F 85.4 °F 66.9 °F 58% 30.26 in 10.0 mi Variable 4.6 mph - N/A   Scattered Clouds
12:53 PM 84.9 °F 85.4 °F 62.1 °F 46% 30.25 in 10.0 mi South 8.1 mph 16.1 mph N/A   Scattered Clouds
1:53 PM 86.0 °F 86.3 °F 62.1 °F 44% 30.23 in 10.0 mi SW 6.9 mph - N/A   Scattered Clouds
2:53 PM 86.0 °F 86.8 °F 63.0 °F 46% 30.22 in 10.0 mi South 11.5 mph 16.1 mph N/A   Scattered Clouds
3:53 PM 84.9 °F 87.1 °F 66.0 °F 53% 30.20 in 10.0 mi South 13.8 mph - N/A   Scattered Clouds
4:53 PM 82.9 °F 85.4 °F 66.9 °F 58% 30.19 in 10.0 mi South 15.0 mph - N/A   Scattered Clouds
5:53 PM 81.0 °F 83.8 °F 68.0 °F 65% 30.19 in 10.0 mi SSW 11.5 mph - N/A   Scattered Clouds
6:53 PM 79.0 °F - 68.0 °F 69% 30.18 in 10.0 mi South 8.1 mph - N/A   Clear
7:53 PM 78.1 °F - 66.9 °F 68% 30.18 in 10.0 mi South 8.1 mph 15.0 mph N/A   Clear
8:53 PM 75.0 °F - 66.9 °F 76% 30.18 in 10.0 mi South 3.5 mph - N/A   Clear
9:53 PM 73.0 °F - 66.9 °F 81% 30.19 in 10.0 mi Calm Calm - N/A   Clear
10:53 PM 69.1 °F - 64.9 °F 87% 30.20 in 10.0 mi Calm Calm - N/A   Clear
11:53 PM 68.0 °F - 64.9 °F 90% 30.20 in 10.0 mi Calm Calm - N/A   Clear